Theta_e
348 347 348 349 348 347 344 343 342 343 340 335 331 322 321 323 323 327 332 333 331 330 328 328 329 332 334 336 338 338 335 334 333 333 334 333 333 333 333 336 340 342 341 340 336 336 340 341 340 339 337 335 328 325 328 330 333 334 331 329 330 333 335 335 334 330 330 333 333 332 332 332 331 330 329 329 332 335 337 338 338 339 339 339 340
347 347 348 348 349 347 344 343 343 344 339 334 328 321 322 325 327 331 333 332 331 330 328 329 333 337 337 337 338 339 337 335 336 336 336 336 336 336 338 340 341 342 340 338 337 337 340 340 341 339 338 336 329 327 330 332 334 333 331 331 334 335 335 335 334 332 330 332 332 332 331 331 330 330 330 330 333 336 337 338 338 338 339 339 339
345 348 348 348 349 346 344 343 343 343 337 333 327 321 324 327 330 333 332 332 333 330 328 330 334 337 338 339 338 339 339 337 338 339 339 339 341 341 341 342 342 341 339 338 338 339 339 339 340 339 338 335 331 330 332 334 335 334 332 332 335 336 334 333 332 331 330 329 328 330 331 331 331 330 330 331 334 336 336 337 338 338 339 338 338
344 348 348 349 348 345 344 343 344 342 336 332 325 321 325 329 332 333 332 334 335 331 329 330 332 335 335 337 337 338 340 340 341 341 342 342 343 343 343 342 343 342 339 338 338 339 338 338 339 338 337 334 331 332 332 333 334 334 334 333 336 337 334 333 333 333 332 331 326 326 330 331 331 331 331 331 334 336 335 337 338 338 338 338 338
344 347 348 350 348 345 344 343 344 340 335 332 324 322 326 330 333 332 333 337 337 333 331 329 331 333 333 335 337 338 339 341 341 341 343 343 344 343 343 342 342 341 340 339 338 338 337 337 338 338 337 332 331 332 332 333 333 334 335 334 336 337 336 335 336 336 335 333 328 324 329 331 331 331 331 331 332 334 335 335 336 338 338 338 338
343 347 348 349 348 346 344 344 343 339 334 331 323 322 327 331 333 332 335 339 338 336 333 330 330 332 334 335 336 337 339 342 342 343 344 344 344 343 343 342 341 341 340 341 338 337 337 337 337 337 334 331 332 333 332 332 333 334 335 336 337 337 338 337 337 338 335 333 329 324 327 330 331 331 331 331 331 331 334 333 332 336 337 337 337
342 346 347 347 347 346 344 344 342 337 334 331 323 323 328 332 333 332 337 340 339 338 335 332 331 331 334 336 337 336 339 343 343 344 344 343 343 342 342 341 342 341 341 341 339 338 337 336 336 335 331 331 332 332 332 332 333 334 335 336 337 337 337 337 337 338 336 333 330 325 325 329 330 331 331 331 331 330 332 332 331 334 335 336 336
343 345 345 345 346 345 343 342 341 336 335 331 323 324 329 334 333 332 338 340 340 340 337 335 332 331 333 336 337 337 340 342 342 343 343 342 342 341 341 341 341 341 341 340 339 338 337 336 336 333 330 331 332 332 332 332 333 334 334 335 335 336 336 336 337 337 336 332 329 326 326 330 331 332 332 331 331 331 333 332 332 334 334 335 335
345 345 344 344 345 343 341 341 339 336 335 331 324 326 331 334 333 333 339 341 341 341 339 337 333 333 335 337 337 338 340 341 341 343 342 342 341 340 341 341 341 340 340 340 340 339 338 337 334 329 328 331 332 333 332 333 333 334 334 334 335 335 336 336 337 337 335 331 330 327 326 330 332 331 331 331 330 331 332 331 330 332 333 334 334
346 345 344 343 343 342 340 340 338 336 334 330 326 327 332 334 332 335 340 342 341 341 339 338 335 333 336 339 339 338 339 340 341 342 342 342 341 341 341 340 340 339 339 339 339 340 339 336 332 326 327 330 332 333 333 333 334 334 334 335 335 335 336 336 337 336 333 331 330 328 326 328 329 330 331 331 330 330 330 330 331 331 331 332 333
346 345 344 342 341 341 339 339 338 336 333 329 327 328 332 334 334 338 342 342 341 341 339 338 335 335 338 340 339 338 339 341 341 341 342 342 341 341 340 339 339 338 338 339 339 339 338 336 333 326 325 329 331 333 333 334 334 335 335 335 335 335 335 334 335 334 332 331 328 327 326 325 327 329 330 330 330 330 329 330 332 331 331 332 333
346 345 343 341 341 342 340 340 338 336 334 331 329 329 332 335 336 340 343 343 342 340 338 337 334 335 338 340 339 338 339 340 341 341 341 341 341 340 339 339 338 339 339 339 339 338 337 337 335 328 325 329 331 333 333 334 335 335 335 335 334 335 336 333 333 332 331 329 326 326 323 322 327 330 329 330 329 329 329 329 329 329 329 330 331
345 345 343 343 343 343 342 340 338 337 336 334 333 331 333 336 338 342 344 343 342 339 337 335 332 334 337 338 338 338 339 340 340 340 340 339 339 338 338 337 337 339 339 338 338 338 337 337 336 330 326 328 330 332 333 334 335 335 335 334 334 336 336 334 333 332 330 328 326 326 322 322 327 330 330 330 329 329 329 329 329 329 328 328 330
342 345 344 345 345 345 343 342 339 338 337 336 335 331 333 337 339 343 344 343 341 338 336 333 331 333 336 337 338 338 338 339 339 338 338 337 336 336 336 335 336 337 337 337 338 338 338 337 336 332 326 327 329 330 331 333 334 334 335 334 334 335 336 335 334 331 329 328 328 327 325 324 327 330 329 329 329 329 329 329 328 328 328 328 328
338 342 343 344 345 345 344 343 341 339 338 337 336 334 335 338 341 343 343 342 339 337 335 332 332 334 336 337 337 336 337 338 338 337 337 337 336 337 337 337 336 337 337 337 337 337 337 337 336 331 327 327 327 328 329 331 333 334 334 333 334 335 336 335 333 331 329 329 328 326 326 327 329 330 330 329 329 329 329 329 328 328 328 328 327
333 338 342 344 345 345 345 344 343 341 339 339 337 337 338 340 342 343 343 342 337 334 332 330 332 335 336 337 337 337 337 337 337 338 339 338 337 338 338 337 336 336 336 336 336 336 336 336 335 332 329 328 326 326 327 329 332 334 334 333 333 335 335 335 333 332 330 328 327 326 326 327 327 328 330 329 328 328 328 328 328 328 328 327 327
333 337 341 343 344 345 345 345 344 342 340 340 339 340 342 342 343 343 342 340 334 329 327 329 334 336 337 338 338 337 336 335 337 339 340 339 339 339 337 336 335 335 336 335 335 335 336 336 335 334 333 331 327 323 324 327 331 333 333 333 333 335 336 335 334 332 329 328 327 327 326 327 326 324 326 328 328 328 328 328 328 328 328 327 327
338 339 341 344 344 345 344 344 344 343 342 341 341 343 343 342 342 342 340 334 328 325 327 333 336 337 338 338 337 337 335 333 336 339 339 338 337 334 333 333 333 334 334 334 335 335 335 336 335 333 333 332 328 323 322 325 328 331 332 333 334 335 336 336 334 331 328 329 328 327 326 327 326 324 325 328 329 328 328 327 327 327 327 327 327
342 341 342 344 344 344 344 344 344 343 342 342 343 344 343 342 341 341 339 329 323 325 331 336 338 337 337 338 338 337 335 333 334 335 334 333 331 330 330 331 332 333 333 333 333 333 334 335 334 333 332 330 328 325 323 325 327 330 331 333 334 334 336 336 334 331 330 330 329 328 327 327 328 328 328 327 327 327 327 327 328 327 327 326 326
343 343 343 344 343 344 344 343 343 343 342 343 344 344 342 342 341 342 336 325 324 329 334 337 338 337 336 338 338 336 337 335 334 333 333 331 331 331 330 330 331 331 331 331 330 330 331 332 332 331 330 330 329 329 328 328 328 330 331 333 334 333 335 336 334 333 331 330 329 328 328 328 330 331 329 327 326 327 327 327 327 327 327 326 326
344 344 343 343 343 343 343 343 343 343 343 343 344 343 341 341 341 338 331 326 329 331 334 337 337 336 336 338 337 335 336 336 335 335 334 333 332 331 329 328 328 328 328 327 328 328 329 330 330 330 330 330 330 330 331 331 330 330 331 332 332 332 335 336 334 333 331 330 329 328 328 329 331 332 329 327 328 328 327 326 327 328 327 326 325
344 344 343 343 343 343 343 343 343 343 343 343 343 342 341 340 338 333 330 332 332 328 332 337 337 336 336 336 335 334 334 334 335 335 334 333 331 329 327 325 324 325 325 325 326 327 327 328 328 329 329 329 328 329 330 330 330 331 331 332 331 331 334 336 334 333 331 330 329 328 329 330 331 331 330 329 329 328 327 324 325 326 324 323 324
343 344 344 343 342 343 343 343 343 343 342 342 342 341 340 338 335 329 327 331 330 327 333 337 337 337 336 334 334 334 333 333 334 334 332 330 328 327 324 323 324 325 325 325 325 325 325 326 326 326 326 327 327 329 329 329 329 329 330 330 330 330 332 335 334 332 331 329 329 329 330 330 330 331 331 331 330 329 328 323 322 321 319 322 323
343 343 343 343 342 343 343 343 343 343 342 341 341 339 337 336 334 329 326 328 328 330 335 337 337 338 336 334 334 335 332 331 333 333 330 327 326 325 323 324 325 325 326 326 326 326 325 325 325 325 326 327 329 330 331 330 328 328 329 330 330 331 333 335 334 332 331 329 329 329 330 329 329 332 332 332 331 330 328 322 320 318 318 323 323
342 342 341 342 342 343 342 342 342 342 341 340 338 336 334 333 332 329 327 329 331 334 336 336 337 337 336 336 335 334 330 327 332 332 327 326 326 324 324 324 325 327 329 328 327 327 326 327 326 326 327 328 330 331 331 331 330 329 328 329 330 332 334 334 333 332 331 330 329 329 329 328 330 332 332 332 331 330 328 323 318 314 316 321 322
341 342 341 341 342 342 342 341 341 341 340 338 335 334 333 331 330 329 329 331 334 335 336 336 336 336 337 336 334 331 326 326 333 333 327 327 327 326 325 325 327 329 332 332 330 329 330 330 329 329 329 329 331 331 331 331 332 331 330 329 330 333 334 334 333 332 331 330 329 330 329 328 329 332 333 332 331 331 329 325 319 313 311 315 319
341 341 341 341 341 340 339 338 338 337 337 336 334 333 333 331 329 328 330 332 335 336 335 335 335 337 337 334 330 327 325 330 336 334 330 329 329 329 328 327 331 331 332 334 333 332 332 332 332 331 330 330 331 331 331 331 330 330 330 330 331 333 334 334 333 332 331 330 330 330 330 328 329 332 333 332 331 331 330 327 323 318 312 312 313
341 340 340 340 340 339 337 335 334 335 335 335 333 333 332 329 327 327 331 332 334 335 334 335 336 337 335 331 328 327 330 335 337 335 332 331 331 332 333 333 335 334 332 332 333 333 332 332 332 331 331 330 330 332 331 330 330 329 330 330 331 333 334 333 332 332 331 331 331 331 330 329 330 332 332 332 331 330 329 328 326 324 318 313 310
339 339 339 339 339 338 336 335 335 334 334 334 332 331 330 328 326 327 331 332 333 334 333 335 335 335 333 330 330 331 333 336 336 335 333 334 334 333 334 335 336 335 333 332 331 332 332 332 331 330 331 330 331 332 332 331 330 329 329 329 330 332 333 333 332 331 331 331 332 332 331 330 330 331 332 331 331 330 329 329 328 327 324 319 315
337 338 338 339 340 338 337 337 336 335 334 333 331 331 330 328 328 328 331 332 333 334 333 333 333 333 332 331 333 334 334 336 336 335 333 334 335 335 335 335 335 335 334 333 332 332 332 331 331 330 331 331 332 332 332 331 330 329 328 328 328 330 333 333 332 332 331 331 332 332 333 331 330 331 331 331 331 330 328 328 329 328 326 323 320
337 338 337 339 340 339 338 338 337 336 334 333 332 331 330 330 330 331 332 333 333 333 332 331 331 331 332 332 334 335 335 336 334 333 333 334 336 335 334 334 334 334 333 333 333 333 332 330 330 332 332 332 332 332 332 331 330 329 328 328 328 328 331 333 332 331 331 331 332 333 333 332 330 331 331 331 331 330 329 328 329 329 328 326 324
337 338 337 338 339 339 339 338 338 336 335 334 333 333 332 333 333 332 333 333 332 332 330 330 331 332 333 333 333 334 335 335 334 334 335 335 336 335 334 334 334 334 333 333 333 333 333 331 331 332 333 333 333 332 332 331 330 329 328 328 327 327 330 332 332 331 331 331 331 331 332 332 330 330 331 331 331 330 329 328 328 329 329 328 327
337 337 337 338 338 339 339 338 337 336 335 335 335 334 334 334 333 333 334 333 333 332 331 330 332 334 333 332 331 333 334 334 334 335 336 336 336 335 334 334 334 333 333 333 333 333 333 332 332 332 332 332 333 332 331 331 330 330 329 328 327 327 328 330 330 329 331 330 329 330 332 333 331 330 331 331 331 330 329 328 327 328 329 330 329
338 337 336 336 337 338 339 338 337 336 336 336 336 335 335 334 333 334 334 333 333 333 332 332 333 332 330 330 332 333 334 334 334 336 336 336 335 335 334 334 334 333 333 333 333 333 333 332 332 331 332 332 331 331 331 330 330 330 329 328 327 327 327 328 328 329 331 330 329 330 333 334 332 330 330 331 331 330 329 329 327 328 328 329 329
337 336 335 335 337 338 338 338 337 336 336 337 336 334 334 334 333 334 334 333 333 334 333 333 333 329 327 331 333 334 335 335 335 336 335 335 334 333 333 334 333 333 333 333 332 332 331 332 331 331 331 331 331 330 330 330 331 331 330 328 328 328 328 328 329 331 332 330 328 330 333 334 332 330 330 330 331 330 329 329 329 328 328 328 328
336 336 335 336 337 337 338 338 337 336 337 337 336 334 333 333 333 334 334 333 333 333 332 332 330 327 329 332 334 334 334 334 335 334 334 334 333 333 333 333 332 332 332 331 332 331 331 331 331 331 331 331 330 329 329 330 331 331 331 329 329 329 328 329 330 331 331 329 328 330 332 332 332 331 330 330 331 330 329 330 329 328 328 328 328
335 335 335 336 336 337 337 338 337 337 336 336 335 334 333 333 333 333 333 333 332 332 332 331 330 331 332 334 334 333 333 333 333 333 333 333 333 333 333 333 332 332 332 331 332 331 331 331 331 332 332 331 330 329 329 331 332 332 332 331 330 329 329 329 331 332 331 329 328 329 331 332 332 331 329 330 330 330 330 330 329 329 329 328 328
334 334 335 336 336 336 337 337 337 337 336 336 336 334 334 333 334 333 333 333 333 332 332 332 333 333 334 334 333 333 333 333 333 332 333 333 333 333 332 332 332 332 332 332 332 331 331 331 331 332 333 332 331 329 330 332 332 332 332 331 331 330 329 329 330 332 331 330 329 329 330 330 331 330 329 329 330 331 330 330 329 329 329 328 328
333 334 336 336 337 336 336 337 337 337 336 336 336 335 334 334 333 333 333 333 333 333 333 333 334 334 334 333 332 332 333 333 333 333 333 333 332 332 332 332 332 333 333 333 332 331 331 332 332 332 333 333 330 329 330 331 332 332 332 332 331 330 329 329 329 331 331 331 331 330 330 330 330 331 330 329 329 331 331 330 329 329 329 328 327
334 335 337 337 337 336 336 336 336 336 336 335 335 334 334 333 332 332 333 333 333 333 334 334 334 334 333 332 332 332 333 333 333 333 333 332 332 332 332 332 332 333 332 332 332 331 331 332 333 332 333 333 331 329 330 331 331 331 330 331 331 330 330 329 329 329 330 331 332 332 332 331 332 332 332 330 329 330 331 331 329 328 328 328 327
334 336 337 337 337 337 336 336 336 335 335 334 334 334 333 333 332 332 333 333 333 333 334 334 333 333 332 332 331 332 332 332 332 333 333 332 332 332 332 333 333 333 331 331 332 331 331 332 333 333 333 332 331 330 330 331 330 328 328 329 329 329 329 329 329 329 330 330 330 331 332 332 333 333 332 331 330 329 330 331 330 329 328 327 327
335 336 337 338 337 337 337 338 337 335 334 334 334 334 334 333 333 333 333 332 332 333 333 333 333 333 332 332 332 332 333 333 332 333 333 333 333 332 332 332 332 332 332 332 332 332 332 332 333 333 332 332 331 330 330 330 329 328 328 328 328 328 328 328 329 329 329 330 330 330 331 331 332 332 332 331 330 330 329 329 329 329 329 328 328
335 337 337 337 337 337 338 338 337 336 335 335 335 334 334 333 333 332 332 332 333 333 333 333 333 333 333 333 332 333 333 333 332 332 332 332 332 332 331 331 331 331 331 331 332 332 332 331 332 332 332 332 331 330 330 330 329 329 328 330 330 328 328 327 327 328 328 329 329 330 330 330 330 331 330 330 330 331 330 329 328 329 329 329 329
335 336 337 337 337 337 338 337 337 337 336 336 335 334 333 333 332 331 331 332 332 333 333 333 333 333 333 333 333 333 332 331 330 329 330 330 330 330 330 330 330 330 330 331 331 332 332 331 331 332 331 332 332 331 331 330 330 330 329 330 328 328 329 328 326 327 327 328 328 328 329 330 330 330 330 329 330 330 331 330 329 329 330 329 329
335 336 336 336 337 337 337 337 337 337 336 336 335 333 332 332 332 331 331 332 332 333 333 332 332 332 332 331 331 331 330 329 329 328 328 329 329 328 328 328 328 329 328 329 330 330 330 330 330 331 330 330 331 331 331 330 330 330 329 329 329 330 330 327 326 327 327 327 328 327 329 330 330 329 330 329 329 329 330 330 329 329 329 329 329
335 335 336 336 336 337 337 337 337 337 337 335 333 331 331 332 332 332 331 331 332 332 331 330 330 330 329 328 329 329 329 329 329 328 328 328 328 327 327 327 327 328 327 327 328 328 329 329 329 330 329 329 330 330 330 330 330 329 329 329 330 331 329 326 328 327 325 326 327 328 328 329 329 329 329 329 329 329 328 328 327 328 328 328 328
334 335 336 336 336 337 336 336 335 335 334 333 331 331 331 332 332 331 331 330 331 331 330 328 329 328 328 328 328 329 329 328 328 328 327 327 327 327 326 326 327 327 327 327 327 328 328 328 328 328 328 328 329 329 330 330 330 329 329 329 328 329 327 327 328 327 326 325 325 326 327 328 328 328 328 328 328 327 327 327 326 326 327 327 327
334 335 335 336 336 336 336 335 333 333 335 334 333 332 331 332 332 330 330 329 329 329 327 327 328 327 328 328 328 328 327 326 326 327 326 326 326 326 326 326 326 326 327 327 327 328 328 328 328 328 327 328 328 328 329 330 329 329 329 329 328 328 327 326 326 325 326 325 324 323 325 326 327 327 327 327 327 327 326 326 326 326 326 326 326
334 334 335 335 335 336 335 334 334 334 335 334 333 334 332 331 330 329 329 328 328 327 327 327 326 326 327 327 327 327 326 325 326 325 324 324 325 325 326 326 326 326 326 327 327 328 328 328 328 327 328 328 328 328 328 328 328 329 329 328 328 327 327 326 324 323 323 325 325 322 322 324 326 326 326 326 326 326 326 326 325 326 326 325 325
333 333 334 334 334 335 334 335 335 334 334 333 331 331 331 329 329 329 328 328 327 326 326 326 325 325 326 326 325 325 325 325 325 324 323 322 323 324 325 325 325 326 326 326 327 327 327 327 327 327 326 324 323 324 326 327 327 328 329 329 328 327 326 324 323 323 321 322 323 322 320 322 323 324 325 324 323 324 324 324 324 325 325 325 325
332 332 333 333 334 334 333 335 335 331 331 333 330 328 329 328 328 328 327 327 327 326 326 325 324 324 324 324 324 324 324 323 323 323 322 322 324 324 323 323 323 325 325 325 325 325 325 325 325 325 322 318 317 318 321 324 326 328 328 328 328 327 325 323 322 323 321 320 321 321 319 321 322 324 324 322 321 322 323 323 324 324 324 324 323
Wind_Speed
21 21 21 19 19 21 22 24 24 25 25 23 22 22 22 22 22 20 20 20 21 21 22 22 22 22 22 23 23 23 24 25 25 25 25 24 23 23 23 24 23 21 20 18 17 19 18 17 16 16 15 17 19 21 23 23 21 21 20 21 22 22 22 21 21 21 22 22 21 21 20 20 20 20 20 19 16 15 16 16 18 19 19 20 21
22 22 22 20 20 21 23 24 25 25 24 23 22 22 23 22 22 20 20 20 20 21 22 22 22 22 22 23 23 22 24 25 25 25 25 24 23 23 23 23 21 19 18 17 17 18 18 17 15 15 15 16 19 22 22 21 19 20 20 20 21 20 20 21 21 21 22 22 22 22 21 20 21 21 21 18 15 15 16 17 18 19 20 20 21
26 23 22 21 21 21 23 24 25 25 24 24 22 23 23 22 22 20 20 20 20 21 22 23 24 23 23 23 23 21 22 24 24 23 23 23 22 22 22 21 20 18 17 17 18 18 18 18 16 15 15 16 19 21 20 19 18 19 19 20 20 19 20 21 22 22 22 22 22 23 22 20 20 21 19 17 15 15 16 17 17 18 20 21 22
28 25 23 21 21 22 23 24 25 25 24 23 22 23 23 23 22 20 20 20 20 21 22 23 24 24 24 23 22 20 21 23 23 22 22 22 21 20 21 20 18 16 15 17 17 16 17 17 17 15 14 16 19 19 18 18 17 18 19 20 20 18 19 22 22 22 21 21 22 23 23 21 20 19 17 16 16 15 16 16 16 17 19 21 22
29 27 24 22 21 23 23 24 25 25 24 22 22 23 23 23 22 21 20 20 20 20 21 22 23 23 23 22 21 20 20 22 22 22 21 21 21 20 19 18 17 15 15 16 16 15 16 16 16 14 14 17 18 17 17 17 16 16 17 18 18 17 17 18 16 18 18 17 19 22 24 22 20 18 17 17 15 13 14 15 15 16 17 19 20
31 28 25 23 22 23 23 24 24 24 23 21 22 22 23 23 22 21 20 19 19 20 20 20 21 21 21 20 19 19 19 20 21 21 20 20 20 19 18 18 17 16 16 15 14 14 15 15 14 14 15 17 17 16 15 15 15 15 15 14 15 15 15 14 10 11 15 15 17 20 22 22 20 18 17 16 13 13 13 12 13 14 15 17 18
31 29 27 25 24 24 23 24 24 24 22 21 21 22 23 22 22 21 19 19 19 19 19 18 18 19 19 18 18 19 19 19 20 20 20 20 19 18 17 17 17 17 16 14 13 13 13 13 13 14 16 18 17 15 14 14 14 14 13 12 12 13 12 10 7 7 12 14 15 19 21 22 20 18 16 14 13 12 11 9 11 13 13 14 16
30 30 27 26 25 24 23 23 24 23 22 21 21 22 23 23 22 21 19 19 19 19 18 18 17 17 18 17 17 17 18 18 19 19 18 18 17 17 17 17 17 17 16 14 13 13 13 12 12 14 16 18 17 15 14 13 12 12 12 11 11 10 9 6 4 7 12 13 14 18 20 21 19 17 16 14 13 12 11 10 12 13 12 12 14
29 28 27 27 25 24 23 23 23 23 22 21 22 22 23 22 22 21 19 19 19 18 18 17 17 17 16 16 16 15 16 17 18 17 17 17 15 16 16 17 17 16 15 15 14 13 13 12 12 13 16 17 17 15 13 12 11 11 11 11 11 12 11 7 5 11 16 14 14 16 18 20 18 16 15 14 13 12 12 12 12 12 11 12 12
28 28 27 26 24 23 23 23 23 23 22 22 22 22 22 22 22 21 19 19 18 17 17 16 16 17 16 16 15 14 16 17 18 17 16 16 15 15 15 15 15 15 14 14 14 14 13 11 11 13 16 17 17 15 13 12 11 11 11 11 12 14 12 10 11 16 17 15 15 15 16 17 18 17 15 14 13 12 12 12 13 13 12 12 12
27 27 27 25 24 23 23 23 23 23 23 22 22 22 22 22 22 20 18 18 17 16 15 15 16 16 16 16 15 14 16 16 17 17 16 15 15 14 13 13 13 13 13 13 13 13 12 10 11 13 15 16 16 14 13 12 10 10 11 12 13 15 13 14 16 17 16 15 15 15 15 15 18 18 16 15 14 13 13 13 13 13 12 12 12
26 26 25 24 23 22 23 22 23 24 23 22 22 21 22 22 22 19 18 17 15 14 14 15 16 16 15 16 15 15 16 16 16 17 16 14 13 12 11 11 12 13 13 12 12 12 10 9 10 12 15 15 15 13 12 11 10 10 11 12 14 15 15 17 16 16 15 15 15 14 13 16 19 18 16 15 14 14 13 13 12 12 12 12 11
26 25 24 24 23 22 22 22 23 23 22 22 21 21 22 22 21 19 17 16 14 13 14 15 15 15 15 14 14 14 15 16 15 15 14 13 12 11 10 11 12 13 12 11 12 11 10 9 8 10 13 14 13 12 11 10 9 9 11 12 13 14 14 16 14 14 14 15 15 14 14 17 19 17 16 15 14 13 13 13 12 12 13 13 11
25 24 23 24 23 22 22 22 23 23 22 21 20 20 22 22 21 19 17 15 14 13 14 15 15 15 15 14 13 13 14 14 14 13 13 12 12 11 10 10 10 10 10 10 10 10 9 9 8 9 12 13 13 12 10 9 9 9 10 10 13 14 14 15 13 13 15 16 15 14 15 17 18 16 15 14 14 13 13 12 13 13 13 13 12
25 24 24 23 22 21 21 22 22 22 22 21 20 20 22 23 20 19 17 15 13 13 15 16 16 15 15 13 12 12 12 12 12 12 13 13 13 12 10 9 9 9 9 10 10 9 8 8 8 10 11 12 12 11 10 10 9 9 9 9 12 14 15 15 13 12 15 16 15 14 15 16 17 16 15 14 14 13 13 12 12 13 13 12 12
25 24 25 24 23 22 21 21 22 22 21 21 20 21 23 22 20 18 17 15 13 14 17 17 17 16 14 13 12 12 12 12 11 11 12 13 13 12 10 9 8 8 8 9 9 8 8 8 9 11 11 11 10 10 9 10 10 8 8 9 10 13 13 15 13 12 14 15 14 14 14 14 14 15 15 14 14 13 12 12 12 12 12 12 12
25 26 26 24 23 23 22 21 22 22 21 21 22 23 23 21 20 18 16 15 13 15 16 17 16 16 15 14 13 12 12 11 10 11 13 14 13 11 9 8 8 8 8 8 8 8 8 7 9 11 10 9 9 10 9 10 9 8 8 8 9 12 10 12 12 12 13 14 13 13 13 12 11 12 14 14 13 13 12 11 12 12 12 12 12
25 26 26 25 24 23 23 22 22 23 22 22 23 23 22 21 19 17 16 14 14 15 16 16 15 15 15 14 12 12 12 11 11 12 13 13 11 10 9 8 8 8 7 7 7 7 8 8 9 9 8 8 9 11 10 10 9 8 8 7 8 10 10 11 13 12 12 12 12 12 12 10 10 13 14 14 14 13 12 11 11 11 11 12 12
25 25 26 25 25 24 23 24 23 23 24 24 24 22 21 20 18 16 15 14 14 15 15 14 14 14 15 14 12 11 12 11 11 11 12 11 10 9 8 8 8 8 7 6 7 7 8 8 8 8 8 8 10 12 11 10 9 8 8 7 7 10 11 12 14 13 12 12 12 12 11 11 12 13 12 12 14 13 12 11 11 11 10 11 11
25 25 25 25 25 25 25 24 25 25 26 26 24 22 21 19 18 16 15 15 15 14 13 13 13 14 15 14 12 11 11 11 10 10 10 9 9 8 8 8 8 7 6 6 7 8 9 9 8 8 9 10 11 11 10 10 9 9 8 7 7 9 10 13 14 12 11 12 12 12 12 11 12 12 10 11 14 13 12 11 10 10 10 10 11
24 24 25 25 25 25 25 26 26 26 26 26 24 22 20 19 18 16 16 17 16 13 12 13 14 15 15 14 13 12 11 10 9 9 8 8 7 7 8 8 8 7 7 8 10 10 10 10 10 10 10 10 10 9 9 8 8 9 9 7 7 9 9 12 15 12 11 12 12 12 12 11 11 11 10 12 14 13 12 11 10 10 9 9 10
23 24 24 25 25 25 26 26 26 26 26 25 23 21 19 18 17 18 19 18 16 13 12 15 17 17 15 14 14 12 11 9 9 8 8 8 7 7 8 9 9 9 9 11 11 12 11 11 10 9 9 8 7 7 7 6 7 8 9 7 6 8 9 11 14 12 11 12 12 12 12 11 10 11 11 11 12 11 10 9 10 10 9 9 9
23 24 24 24 24 25 25 26 26 25 24 23 22 20 18 18 19 20 19 17 15 13 13 18 19 18 16 14 14 13 11 9 9 8 8 8 8 8 9 11 10 10 11 11 10 10 10 9 8 7 7 7 6 6 5 6 7 8 8 7 6 6 7 9 13 12 12 13 13 12 11 10 9 11 11 10 10 8 8 9 10 9 8 9 8
23 24 24 24 24 25 24 24 24 23 23 22 21 19 18 19 21 20 18 16 13 14 16 20 20 18 17 15 14 13 12 10 9 8 8 9 8 8 10 11 10 10 9 8 7 8 8 7 6 6 6 6 5 4 4 6 7 7 8 7 6 5 5 7 12 12 12 12 13 12 11 10 10 13 12 10 8 7 8 9 9 8 9 9 8
24 24 24 23 23 24 24 24 23 22 22 21 21 20 20 20 20 18 15 12 12 16 20 21 20 19 18 16 15 14 12 11 10 9 8 9 9 9 10 10 10 9 6 5 6 7 7 7 6 7 6 5 5 5 2 4 6 5 5 5 4 4 5 8 13 13 12 13 13 12 11 10 12 13 11 9 8 7 7 7 8 9 10 10 8
24 23 23 24 22 23 24 23 22 22 22 21 22 21 22 21 19 17 13 11 13 19 21 21 19 18 17 17 15 14 13 13 11 9 9 10 10 10 10 10 9 6 5 4 5 5 6 5 5 6 5 5 7 7 4 4 4 3 2 2 2 6 9 11 13 13 13 13 13 12 11 11 13 14 11 9 8 7 6 6 8 9 10 10 8
22 21 21 20 21 22 23 23 23 23 22 22 22 22 21 20 18 16 12 12 15 20 22 21 19 17 16 16 15 14 13 13 11 9 9 10 10 11 11 10 8 5 5 3 3 3 3 1 3 4 5 5 6 7 6 6 6 5 2 1 4 9 12 13 14 14 13 13 13 12 11 12 15 15 12 10 9 8 6 6 7 8 9 9 8
25 23 19 16 19 22 22 23 23 24 25 24 23 22 20 18 17 15 13 13 16 20 23 22 20 18 17 15 14 14 13 11 9 8 8 9 9 9 9 8 7 6 5 2 1 1 0 1 1 2 3 4 4 6 7 7 7 6 6 5 7 10 12 14 16 15 15 15 14 13 12 13 15 16 12 10 10 8 7 6 6 7 8 8 8
21 21 19 17 19 21 23 24 24 25 26 24 22 22 20 19 18 15 14 16 17 21 23 23 21 19 17 16 15 14 13 12 11 10 9 8 6 6 7 7 7 6 4 2 1 1 1 1 1 1 3 4 4 6 8 7 7 6 7 8 9 10 12 14 16 16 16 16 16 14 13 13 16 17 14 11 11 9 8 8 7 6 6 7 8
17 20 21 19 20 22 24 24 24 25 25 24 22 22 21 20 18 16 16 17 19 23 24 24 21 19 18 16 15 14 14 12 11 11 10 8 7 7 8 9 9 7 5 4 3 2 2 1 2 3 4 4 5 6 7 7 7 8 8 9 9 9 11 14 16 17 16 16 16 15 14 13 14 16 14 12 12 9 9 9 8 6 6 6 7
19 26 25 23 22 23 24 23 23 23 23 22 22 21 21 19 19 19 19 18 21 24 24 23 21 18 17 16 16 15 14 12 11 10 10 9 9 8 9 10 9 8 6 5 3 2 1 1 2 5 5 4 6 7 7 7 9 10 10 10 9 9 10 13 15 15 15 15 15 15 15 13 13 16 14 11 11 10 10 10 8 7 6 7 7
21 25 24 26 23 20 24 24 22 23 22 22 22 21 20 19 20 21 20 20 23 24 23 22 19 17 17 17 17 15 14 13 12 10 9 10 10 9 9 9 8 7 6 5 4 3 3 2 2 5 4 4 6 7 7 7 10 12 11 10 9 9 10 13 13 12 13 14 14 14 15 15 15 17 15 12 10 9 10 11 9 8 8 8 7
25 24 24 29 24 20 25 25 23 24 22 23 22 21 20 20 19 20 21 22 24 23 22 21 19 18 17 17 16 15 15 13 12 11 10 11 11 10 9 8 7 7 6 5 4 4 4 3 3 4 5 4 5 7 7 8 10 12 11 10 9 9 10 13 12 11 14 14 14 15 16 16 16 17 15 12 10 9 11 11 10 10 9 8 7
29 26 25 30 29 26 29 29 27 26 24 23 22 20 21 20 19 19 21 23 23 21 20 20 20 19 17 16 15 15 14 13 12 12 12 12 11 10 9 8 7 6 5 5 5 4 5 4 4 5 6 5 5 7 7 9 11 12 11 10 9 8 9 11 11 11 14 16 15 16 17 17 15 15 15 13 11 9 11 10 9 10 9 7 6
29 28 26 28 28 30 33 32 30 28 25 24 22 21 21 21 20 21 22 21 21 20 20 21 21 20 17 16 14 13 13 13 13 13 13 12 11 9 8 8 7 5 5 5 5 5 5 5 5 6 7 6 7 8 9 11 12 12 12 11 10 9 8 9 10 12 15 17 17 16 17 17 14 13 15 15 12 10 10 10 9 9 9 8 7
28 28 28 27 26 30 32 32 31 28 26 24 23 22 21 22 22 22 21 19 20 20 20 21 20 19 17 15 14 13 13 13 13 13 12 12 10 8 7 8 7 6 6 6 5 5 5 6 7 6 7 8 8 10 12 14 14 13 12 11 10 9 8 8 9 11 14 17 17 17 17 16 13 12 13 15 13 10 10 10 9 9 9 9 8
26 26 29 28 25 26 29 30 30 28 26 25 24 23 23 23 22 21 20 20 22 21 20 19 18 18 16 14 13 12 13 13 13 13 11 11 9 8 8 8 7 7 7 6 6 6 5 7 8 8 8 9 8 11 15 16 16 15 14 13 11 9 8 8 9 11 14 16 17 17 16 15 13 12 12 14 14 12 11 10 10 9 9 8 7
26 26 29 28 25 26 29 30 30 28 26 26 25 23 22 22 21 21 21 23 23 20 19 19 17 16 14 12 10 10 12 13 13 12 10 9 8 8 9 8 8 7 7 6 6 6 6 6 8 9 8 8 9 13 17 18 18 16 16 15 13 11 8 7 8 11 13 15 15 15 15 15 13 12 12 13 14 12 11 10 10 9 9 8 8
27 27 29 29 28 28 30 30 30 28 27 27 26 24 23 22 21 21 22 23 21 19 18 17 16 14 13 12 10 10 12 12 13 12 10 8 7 9 10 9 8 7 7 6 5 6 7 7 8 9 8 8 9 14 19 19 18 17 17 16 14 12 9 7 7 9 11 13 14 14 14 13 12 12 12 12 13 12 11 10 9 8 9 9 9
28 29 29 30 30 30 30 29 29 28 27 28 27 25 24 22 20 21 22 21 19 18 17 15 14 14 14 12 11 11 12 12 12 12 11 8 8 10 10 10 9 7 6 6 6 5 5 7 9 9 9 10 11 15 19 18 17 16 16 15 13 11 8 7 7 7 8 9 11 12 13 13 12 12 12 11 12 12 11 10 8 7 8 8 9
28 27 27 29 30 31 31 29 30 30 29 30 28 27 25 23 20 20 20 19 18 18 17 16 15 14 14 13 12 12 12 11 11 12 11 9 9 10 10 10 8 7 6 5 6 6 5 7 8 8 8 10 12 15 18 18 16 13 12 12 12 12 9 7 6 5 6 7 8 10 11 12 12 12 12 11 11 11 10 9 7 7 8 8 8
26 26 26 28 28 30 31 30 31 31 31 31 29 27 26 24 21 20 20 19 18 19 19 17 16 15 15 14 13 13 12 11 11 11 10 9 10 10 10 8 7 6 6 6 5 6 6 6 7 8 8 9 10 14 17 14 12 11 10 9 11 12 12 10 9 6 5 5 6 8 8 9 10 11 10 10 10 9 9 8 7 7 8 8 7
25 26 26 26 26 28 29 30 32 31 31 31 28 25 24 22 20 20 21 19 18 18 17 16 15 14 14 13 13 13 11 11 10 10 9 9 10 10 9 8 8 8 8 8 7 6 6 6 7 9 10 11 10 10 11 10 14 15 10 5 4 6 8 9 10 9 6 4 5 6 7 7 9 9 8 8 8 9 9 8 7 6 6 7 8
23 24 26 26 26 26 27 29 31 31 30 29 26 23 21 19 18 20 20 19 18 17 15 15 14 14 14 13 12 12 13 12 12 11 10 11 11 10 9 9 9 8 8 8 7 6 5 5 7 8 10 11 11 9 6 11 19 16 7 3 2 3 3 4 8 9 7 5 4 4 5 7 7 7 6 6 7 7 8 8 6 5 5 6 7
22 23 27 27 25 26 27 29 30 30 29 27 24 21 20 19 18 18 18 18 18 17 17 16 15 14 14 13 13 14 14 14 13 12 12 12 12 10 8 8 8 8 8 8 7 6 6 6 7 7 7 8 10 11 8 10 15 11 7 5 3 2 2 4 5 7 8 8 7 7 7 7 7 6 7 6 5 4 5 6 5 4 4 3 2
21 23 27 27 25 26 27 28 29 30 29 26 24 22 21 21 20 19 19 19 19 19 19 18 16 15 15 15 15 15 14 13 13 13 12 12 12 11 8 8 9 10 9 9 9 9 8 7 7 6 6 6 8 12 12 11 11 8 8 8 4 4 8 8 4 3 7 9 9 10 10 9 9 8 8 7 6 6 6 6 6 6 6 5 3
20 22 25 25 24 27 28 28 29 29 28 27 26 26 24 22 22 21 21 22 22 20 19 18 16 15 15 16 16 15 15 14 14 14 12 11 11 11 10 9 11 11 10 9 10 10 8 7 6 6 6 5 6 10 12 12 10 7 7 6 6 10 16 11 6 4 4 5 8 11 10 9 9 9 9 9 9 10 10 8 8 8 8 6 5
21 23 24 24 25 28 29 28 29 28 27 27 27 29 28 25 24 23 22 24 23 21 20 17 15 15 16 17 17 18 17 15 14 13 12 10 10 11 11 11 12 11 10 10 10 9 7 7 7 7 7 6 6 9 12 12 10 9 8 7 9 14 14 11 12 12 6 3 5 8 10 11 11 12 11 11 11 12 11 11 10 9 9 9 8
23 25 25 25 26 30 30 28 29 28 26 26 27 28 28 27 26 25 23 23 22 21 20 17 17 18 20 20 21 20 18 16 15 13 11 9 10 12 12 12 13 12 11 11 11 10 9 9 10 10 10 9 8 8 10 11 11 12 13 14 16 15 11 10 15 14 8 6 4 3 9 13 14 15 15 13 12 12 12 11 10 10 11 11 12
23 24 24 24 26 29 29 29 28 26 24 24 25 27 28 28 28 27 25 23 22 22 21 18 19 21 22 22 21 20 18 17 15 12 10 10 11 14 14 13 13 13 13 13 14 13 12 12 13 13 12 12 10 8 9 11 11 13 16 19 18 15 11 8 11 12 9 7 5 5 9 12 12 13 15 13 12 11 11 12 12 12 13 13 14
20 22 21 22 24 27 27 27 26 23 22 22 24 27 28 30 30 28 26 25 25 25 22 21 21 20 20 19 19 18 17 16 13 11 10 12 15 17 15 14 14 14 14 14 14 14 13 13 13 13 13 12 11 9 9 11 12 13 15 18 19 19 16 12 14 15 10 8 8 6 9 13 13 12 13 12 13 13 13 14 15 15 16 16 16
Wind_Direction
162 159 158 161 159 152 148 148 147 148 146 144 139 136 136 135 135 133 130 125 123 123 124 124 123 121 120 120 119 120 121 119 118 116 114 111 109 108 108 107 109 111 111 107 101 101 100 98 99 101 102 100 99 102 103 103 103 103 102 101 98 95 94 89 87 86 84 83 80 79 79 78 81 86 91 91 85 81 79 71 68 73 76 78 82
160 156 157 162 159 152 149 149 149 149 147 144 139 138 138 137 137 134 131 125 122 122 121 123 122 119 118 119 119 119 120 119 117 115 113 110 107 106 107 108 111 112 109 105 101 102 102 101 101 102 102 101 104 107 108 105 104 105 104 103 101 95 93 90 88 85 82 83 82 83 81 80 85 88 91 91 86 83 79 73 72 73 74 77 80
152 153 158 161 159 153 150 151 150 149 147 143 140 140 139 139 138 135 131 125 121 120 118 122 123 121 120 120 119 118 118 118 115 113 112 110 108 107 109 111 112 111 105 104 106 106 105 105 104 104 103 104 108 112 111 108 107 107 106 106 103 97 94 89 86 84 81 80 82 87 85 82 86 90 91 89 84 83 80 75 74 73 74 76 77
150 152 156 160 159 154 152 152 150 149 146 143 142 142 141 140 139 136 131 125 122 119 118 121 125 125 123 121 119 118 116 116 115 114 113 113 113 112 113 113 114 110 104 106 111 109 106 107 107 105 104 106 111 114 114 113 111 108 108 109 107 102 97 91 84 81 81 78 79 88 90 85 86 88 89 91 86 80 81 79 75 72 73 75 75
150 150 155 160 159 154 154 152 150 148 145 144 144 143 142 141 139 137 132 126 122 120 120 122 127 128 126 124 120 118 117 117 115 115 114 114 115 116 116 116 117 113 110 110 111 110 107 108 109 107 108 110 113 114 117 118 114 111 109 111 111 106 103 101 88 74 79 82 80 88 93 89 86 86 90 95 88 74 76 77 75 73 74 75 75
150 150 155 158 158 156 154 151 149 147 146 146 145 145 143 142 141 139 133 127 123 122 122 123 127 131 130 126 123 120 120 120 119 119 119 119 119 119 120 120 120 117 115 114 112 111 110 111 111 111 113 115 115 115 117 119 118 115 110 108 108 108 114 121 110 78 83 90 83 87 94 94 90 88 91 95 89 83 77 69 73 74 75 75 75
150 151 155 157 156 156 155 150 148 147 147 148 147 146 145 144 143 141 135 128 124 123 123 125 127 131 132 129 125 123 123 124 126 125 124 125 124 124 124 122 121 119 119 116 114 112 111 111 110 111 116 120 121 119 119 120 120 118 113 105 103 109 115 121 125 101 97 98 89 88 92 94 92 91 93 94 92 88 79 68 74 79 77 75 74
149 152 155 156 155 156 154 149 148 149 149 150 149 148 147 145 145 143 136 130 126 125 126 129 130 132 132 131 128 127 127 127 128 125 125 129 130 129 127 124 125 125 124 120 115 111 107 106 108 112 120 124 125 124 121 122 120 117 112 102 96 92 83 84 117 126 119 112 98 91 93 94 94 94 94 94 94 91 87 78 76 82 82 75 73
149 152 155 154 154 155 151 149 149 151 151 151 150 149 148 146 147 145 138 133 129 128 129 133 136 136 133 131 129 130 132 131 130 128 129 131 129 129 128 131 133 131 126 121 116 110 107 106 105 113 126 128 128 127 124 123 119 113 103 93 83 69 64 77 129 137 132 121 102 94 97 100 100 98 95 94 96 95 90 79 78 85 87 79 74
149 152 154 153 152 153 150 151 151 152 154 152 151 150 149 149 150 147 141 136 132 130 131 136 141 141 137 132 129 134 137 135 134 134 134 130 129 132 134 137 136 132 126 120 117 113 112 110 98 107 129 131 130 129 125 123 116 109 95 83 71 62 74 98 124 134 132 118 102 98 102 106 103 97 96 97 96 94 87 83 84 84 87 86 79
149 151 152 152 151 153 152 153 153 155 155 153 152 152 151 151 151 146 140 137 133 130 132 138 144 145 141 138 135 137 140 138 137 139 138 133 135 138 138 137 130 127 124 120 119 119 118 115 99 105 128 131 131 129 125 124 114 106 88 77 65 63 92 117 125 130 126 111 102 102 105 106 102 99 100 98 95 91 90 93 90 83 87 90 86
148 150 151 151 152 155 155 154 155 156 155 153 153 153 153 152 150 144 138 137 134 133 137 142 147 146 143 143 140 139 142 140 139 140 140 139 139 142 139 132 127 123 122 122 122 124 124 120 103 106 127 133 133 130 125 122 112 101 82 76 64 67 107 130 130 129 120 107 100 100 101 101 101 101 102 100 97 94 94 96 93 90 94 95 91
146 149 150 152 155 157 155 154 155 155 153 152 153 154 155 153 149 144 140 139 137 138 142 144 147 147 143 145 142 141 144 142 140 140 142 142 140 140 136 131 129 127 125 126 126 127 125 120 106 108 129 136 134 133 126 121 111 99 83 76 62 69 117 138 134 126 116 106 98 95 94 99 104 105 105 102 99 98 96 98 97 95 97 99 93
145 147 150 151 153 154 154 154 154 154 153 154 155 156 155 153 149 145 143 142 141 143 145 144 145 145 142 141 141 142 145 144 143 143 144 142 140 136 132 129 128 129 127 126 128 129 127 121 109 111 132 137 134 134 130 125 117 103 89 74 60 76 123 143 134 123 114 106 97 92 91 98 105 105 106 105 103 102 100 100 100 99 98 101 96
147 146 148 148 148 152 154 153 154 154 156 156 155 155 153 152 149 145 146 143 144 148 145 143 143 143 141 139 139 140 143 144 144 145 144 141 139 137 134 129 125 129 128 128 130 130 131 126 110 109 130 139 135 134 134 132 124 112 96 74 62 84 126 144 136 125 116 109 98 93 94 100 106 106 106 108 109 106 104 103 103 102 100 99 97
149 146 145 145 147 150 153 153 154 155 156 155 153 152 151 151 149 149 150 144 146 152 147 144 145 143 141 139 137 136 137 140 142 143 143 143 142 140 137 131 130 135 134 134 139 138 135 130 116 113 125 136 141 139 136 138 130 121 103 78 68 85 122 145 140 130 119 111 101 94 96 106 116 118 116 113 112 109 106 105 105 105 101 98 97
149 145 142 143 147 149 151 152 153 155 155 154 152 151 150 152 153 155 152 145 150 154 148 147 148 145 142 139 134 130 130 133 136 136 139 141 141 142 138 132 133 136 139 145 149 148 144 135 122 121 123 127 143 147 142 142 137 130 111 83 74 82 110 148 147 135 124 111 100 95 97 108 121 124 123 116 111 108 108 109 109 108 103 101 100
145 144 142 143 147 148 150 150 152 153 153 152 151 150 152 155 158 158 149 145 152 152 150 151 151 148 142 137 133 129 127 129 131 132 133 135 136 137 134 133 135 138 149 160 160 151 151 144 127 125 126 124 139 151 150 146 141 137 121 91 80 78 95 146 155 141 126 113 104 98 100 110 114 115 119 117 115 113 111 113 112 109 107 106 102
141 142 141 143 147 148 150 151 153 152 153 152 149 151 155 158 161 158 147 147 154 155 156 156 154 149 140 134 134 131 125 124 130 129 128 130 130 129 129 134 139 149 158 163 162 148 148 147 133 131 133 130 138 148 150 146 144 141 129 100 84 74 90 138 155 145 129 117 110 101 101 109 113 118 123 123 124 122 116 114 113 111 108 108 107
139 141 140 144 147 149 152 153 155 154 154 152 149 155 159 161 162 159 153 155 158 159 163 164 159 150 143 138 136 134 127 125 130 128 128 128 125 124 127 137 140 151 160 149 143 134 133 135 135 138 135 130 132 138 142 142 143 143 134 106 86 73 94 141 153 146 133 121 115 105 107 113 118 126 128 123 122 122 120 119 117 113 110 111 110
138 141 142 146 149 153 155 155 156 155 155 152 153 160 164 167 164 157 154 158 161 166 177 179 168 156 149 142 141 142 135 131 131 129 128 123 119 119 123 130 132 138 141 129 124 122 123 126 131 134 130 126 127 132 135 137 140 144 137 113 93 75 91 144 154 146 135 125 119 112 113 119 123 127 124 121 123 123 122 121 116 113 115 115 111
138 140 144 150 153 156 157 155 155 156 155 152 156 161 163 165 161 155 157 162 166 177 191 185 172 162 154 149 151 149 143 142 139 137 130 120 120 123 123 122 123 126 123 116 116 119 120 123 127 129 129 128 128 130 129 132 133 140 139 118 102 83 85 142 156 148 139 129 123 119 121 126 127 127 126 123 126 126 118 118 122 123 123 117 113
139 141 147 154 157 159 159 155 153 155 156 153 155 157 156 158 158 161 167 169 172 188 193 179 170 162 157 157 157 149 150 152 143 144 136 125 124 125 123 121 123 122 116 114 119 123 125 128 129 130 133 129 125 123 122 128 130 136 141 119 102 94 87 140 160 151 141 132 125 126 129 132 128 127 129 127 127 124 112 118 126 129 124 116 116
140 143 151 159 162 160 157 154 153 158 160 157 155 155 157 160 163 170 172 170 179 195 185 171 166 160 156 160 159 152 154 155 145 147 140 131 127 125 125 125 128 120 115 124 134 136 135 134 130 126 122 122 116 106 121 131 129 131 134 118 102 97 91 146 164 155 143 134 128 132 135 133 128 129 131 128 127 120 111 118 124 123 118 115 112
141 145 154 161 162 159 154 153 158 165 166 161 158 160 164 166 168 171 169 171 186 188 176 168 164 158 156 159 160 157 160 163 157 151 147 142 136 132 131 134 132 124 130 150 150 142 131 123 114 107 103 103 78 51 94 137 137 128 126 132 111 97 110 146 163 157 144 136 133 136 137 133 131 135 137 129 126 121 112 111 117 121 120 121 117
139 147 157 162 159 153 152 157 163 167 166 163 161 164 168 169 168 167 168 176 184 180 173 169 164 158 160 161 162 164 165 167 163 155 154 148 141 140 141 143 139 143 169 159 139 126 113 114 105 92 80 81 66 47 64 99 117 110 108 168 125 117 129 144 160 157 146 140 138 141 141 138 137 139 141 132 128 127 116 103 107 114 119 122 124
139 151 160 160 153 149 154 163 166 165 164 164 164 166 169 169 168 169 176 180 179 179 176 169 164 163 165 166 167 169 167 166 164 160 155 150 147 147 148 151 153 178 193 165 138 123 108 112 87 75 63 74 72 55 64 82 91 91 88 133 123 135 144 151 159 156 148 144 143 147 146 142 140 139 143 139 134 134 124 112 107 104 109 118 124
145 155 160 155 149 153 164 168 169 167 164 166 168 169 171 171 172 176 181 181 177 177 176 171 168 169 169 171 170 165 164 166 164 158 154 156 157 153 154 164 173 193 195 167 159 149 161 318 39 58 65 85 90 65 69 90 97 93 98 110 122 144 154 157 159 155 150 147 147 152 150 144 141 141 149 148 144 144 134 132 126 105 102 112 119
142 151 158 157 156 166 174 173 173 168 165 170 172 172 174 176 179 185 187 183 181 179 178 176 173 172 172 173 169 166 169 169 162 159 162 165 168 170 176 188 197 202 206 203 204 255 329 359 14 67 94 102 104 79 71 87 98 92 95 104 119 145 160 161 160 157 154 151 152 158 154 146 144 146 154 154 148 147 140 145 147 126 111 113 118
130 149 162 159 162 175 177 174 171 166 167 174 176 176 179 183 188 196 194 185 183 182 180 179 176 174 174 174 174 176 177 170 166 173 177 176 185 199 202 207 213 215 226 238 231 267 312 37 56 98 117 118 107 92 79 84 89 86 89 96 109 135 158 165 165 162 158 157 158 159 154 145 145 151 156 156 152 147 140 148 160 150 132 125 122
144 157 166 164 165 177 176 171 166 167 174 180 182 183 186 191 192 193 191 182 178 179 181 181 178 176 177 179 181 184 182 175 180 192 188 184 192 203 207 212 220 223 229 231 217 226 210 135 99 114 125 119 106 95 87 86 85 85 90 97 110 130 153 167 169 167 163 162 162 160 156 151 149 151 154 162 161 150 142 148 167 169 154 144 128
169 164 168 168 166 173 173 170 170 175 182 186 188 189 189 188 185 185 185 178 177 179 182 180 175 177 182 184 187 191 190 186 192 198 190 190 199 205 207 214 227 230 231 227 206 197 188 164 127 131 126 111 105 96 91 88 87 91 95 102 119 139 155 166 167 171 174 170 168 167 167 161 150 149 156 170 171 157 150 153 169 176 168 164 146
176 172 172 170 169 171 170 172 177 183 187 189 189 186 184 181 179 183 183 179 178 181 180 178 177 181 186 188 190 197 199 197 197 197 194 198 207 210 212 219 227 230 234 229 210 206 201 179 141 132 119 111 107 99 97 94 92 95 97 104 122 141 159 171 170 175 183 181 176 173 173 167 152 150 158 170 175 169 164 162 165 171 177 179 166
173 177 177 172 172 173 173 176 182 187 189 189 187 181 181 181 180 180 181 181 181 181 180 180 184 185 187 188 190 195 200 202 201 198 198 202 207 208 213 218 219 223 220 210 199 195 191 181 165 137 116 114 113 107 105 102 101 99 101 110 123 134 153 172 174 174 183 184 178 174 174 170 158 156 163 169 177 178 178 175 160 162 176 179 169
172 177 179 174 172 175 175 177 184 188 187 187 184 180 181 181 180 179 180 181 180 181 182 183 186 187 187 189 193 198 200 204 206 203 201 202 204 203 206 209 207 203 186 171 169 167 166 167 164 148 126 118 116 111 110 111 112 109 110 119 124 128 141 160 166 167 178 180 175 174 175 172 163 162 168 172 180 184 184 183 165 160 170 168 165
175 176 177 174 172 175 174 176 182 185 186 184 181 181 180 178 180 181 180 179 177 180 183 185 188 189 190 192 196 200 200 203 205 206 206 204 201 199 202 201 191 177 164 156 149 141 145 150 152 150 133 124 117 112 115 118 118 113 115 123 122 127 138 148 151 154 170 177 173 176 176 171 168 168 171 174 184 189 186 187 177 169 171 170 171
178 175 175 172 169 171 171 175 181 183 182 180 179 182 180 179 180 179 176 175 177 180 185 188 191 192 191 191 191 193 193 196 200 204 204 199 195 194 196 189 173 163 158 149 137 129 135 145 147 145 134 126 116 116 121 121 119 118 119 120 119 124 136 146 150 151 165 176 177 177 175 172 172 173 175 181 190 193 189 191 189 182 179 180 179
175 170 171 170 166 169 172 175 180 180 179 179 181 182 181 183 183 180 177 176 178 182 185 189 192 193 189 186 187 189 191 192 196 194 187 188 189 184 185 177 164 160 156 144 133 128 127 135 143 141 130 116 109 117 124 123 123 125 122 118 117 119 128 142 152 159 168 176 178 178 175 173 175 177 180 187 194 198 195 193 197 196 190 187 183
172 168 168 167 166 170 173 175 179 180 179 180 181 182 186 188 184 180 177 175 177 179 181 186 190 187 182 179 180 184 189 190 189 182 175 183 183 178 181 176 168 163 158 156 154 145 134 132 136 139 127 103 101 116 122 125 129 128 120 117 116 114 122 144 156 165 171 176 179 178 178 176 178 181 183 191 198 202 202 199 204 205 198 196 195
169 169 168 167 167 169 170 171 177 180 178 177 179 182 186 186 180 175 173 173 175 175 175 180 181 177 173 171 169 169 175 179 182 181 180 186 180 176 177 173 173 171 168 169 160 150 144 139 133 136 129 106 102 116 124 131 132 120 111 114 113 106 113 139 159 169 171 178 181 180 182 181 183 186 184 190 200 205 207 206 205 202 202 203 200
166 170 168 166 168 168 167 167 172 176 176 176 179 183 184 181 177 174 173 173 173 171 169 168 166 165 163 160 158 158 160 166 174 180 182 183 174 171 173 172 175 173 166 160 142 132 144 150 138 134 133 116 109 118 126 127 124 112 101 99 93 91 98 112 136 154 155 164 174 179 186 186 188 191 189 189 197 207 211 212 210 201 204 204 203
165 170 168 167 169 167 165 165 168 172 174 176 180 184 185 182 178 173 171 169 169 168 164 160 157 157 157 155 155 155 157 161 166 174 179 179 173 172 172 169 169 165 162 157 142 135 146 156 150 142 138 126 119 129 131 123 121 121 112 94 79 81 83 85 98 110 119 142 160 168 176 183 187 192 193 192 197 207 211 214 213 204 203 207 216
166 170 170 169 168 167 166 165 167 171 174 177 181 184 185 184 178 168 166 164 165 165 158 154 153 155 156 156 156 156 159 161 160 163 168 169 165 160 156 151 151 152 156 161 157 154 155 159 159 152 144 133 127 139 143 137 136 132 119 106 93 86 73 64 75 83 93 121 152 160 162 169 178 186 191 195 200 206 209 210 217 216 207 208 221
163 167 169 171 170 169 168 165 167 172 176 179 183 184 183 181 170 159 156 154 154 154 150 151 154 157 159 159 157 155 155 151 146 144 144 147 146 142 140 139 143 142 143 153 160 163 161 164 164 159 152 143 135 137 142 144 144 141 123 96 109 110 89 59 63 66 81 100 107 134 158 163 164 172 179 184 189 197 203 205 217 226 208 207 228
160 166 170 172 172 172 170 168 168 172 178 182 184 182 176 171 164 155 151 148 148 151 151 153 158 159 159 157 150 148 148 146 144 142 139 140 139 138 138 139 142 137 133 141 152 153 143 150 161 162 163 158 145 137 136 149 154 156 150 134 116 93 134 154 103 66 70 87 91 101 126 148 153 160 165 166 170 175 186 188 191 191 170 169 194
163 168 171 173 173 173 172 172 173 176 180 182 182 178 171 169 170 164 157 152 152 158 158 156 160 159 155 153 150 149 149 149 149 146 143 145 146 143 137 136 136 129 126 131 139 140 133 135 146 157 166 169 156 143 140 154 165 170 166 169 202 186 155 153 141 72 73 86 97 104 113 129 137 142 144 143 138 126 132 148 146 135 125 127 134
167 167 170 173 171 172 174 175 177 179 178 178 180 177 172 176 178 172 163 157 155 159 161 160 162 164 162 161 161 160 157 152 149 145 145 150 151 147 138 135 135 131 132 133 131 132 131 129 135 147 154 162 164 152 148 155 160 159 169 196 220 182 157 148 149 145 107 87 99 104 109 123 131 128 124 125 127 125 126 129 125 122 122 126 132
167 166 169 172 171 172 175 177 177 178 176 178 183 180 176 178 177 171 165 161 159 159 160 163 164 167 170 171 167 160 153 151 150 146 147 152 149 147 143 138 137 137 139 136 129 130 134 131 134 141 142 147 155 151 150 157 157 145 142 159 168 162 155 149 149 143 127 108 107 102 107 114 118 117 113 118 126 129 125 121 118 119 117 114 113
170 169 170 172 172 173 176 177 180 181 178 179 185 184 180 177 173 169 165 164 162 161 162 163 156 150 152 157 156 150 145 145 146 142 140 143 147 148 145 139 136 135 133 132 129 131 135 132 131 136 134 134 139 142 144 151 158 148 140 143 148 150 146 142 145 139 126 131 134 123 120 114 110 112 114 116 118 118 114 113 115 115 112 109 111
174 172 171 172 173 174 177 180 184 184 178 177 180 180 179 176 172 170 166 165 165 164 163 159 151 145 143 146 147 147 145 143 144 143 136 136 148 150 144 139 137 135 131 131 131 131 131 128 128 130 126 123 125 133 138 141 148 151 151 151 151 149 140 136 150 146 130 121 122 144 139 126 119 119 119 115 110 106 103 107 112 113 112 110 111
172 171 171 174 176 178 179 182 186 185 178 176 175 173 173 173 173 172 169 167 166 165 162 156 153 151 147 145 145 145 144 143 147 147 135 134 145 145 139 136 136 135 133 132 133 132 130 127 126 126 121 116 116 121 131 138 145 151 157 162 164 163 160 164 173 164 145 127 126 132 133 128 123 124 126 116 106 103 101 105 108 108 109 109 109